Regional Weather Roundup
Issued by NWS

Home | Current Version | Previous Version | Graphics & Text | Print | Product List | Glossary On
Versions: 1 2 3 4 5 6 7 8 9 10 11 12 13 14 15 16 17 18 19 20 21 22 23 24 25 26 27 28 29 30 31 32 33 34 35 36 37 38 39 40 41 42 43 44 45 46 47 48 49 50
000
ASUS45 KSLC 172310
RWRUT

UTAH REGIONAL WEATHER ROUNDUP
NATIONAL WEATHER SERVICE SALT LAKE CITY UT
400 PM MST WED DEC 17 2014

UTZ001>011-023>025-180000-

NORTHERN UTAH

CITY           SKY/WX    TMP DP  RH WIND       PRES   REMARKS
BRIGHAM CITY   CLOUDY    42  29  61 SW5       29.99S
HILL AFB       MOCLDY    39  30  70 SW2       29.98R
LOGAN          CLOUDY    40  28  62 CALM      29.97R
OGDEN          MOCLDY    40  31  70 CALM      29.97S
PROVO AIRPORT  MOCLDY    41  25  52 VRB5      29.98R
SALT LAKE CITY MOCLDY    40  31  70 W3        29.98S
VERNAL         CLOUDY    26  23  88 E3        30.02R
WENDOVER       CLEAR     36  27  69 SE5       30.00R WCI  32
HEBER CITY     CLOUDY    41  23  48 SW9       29.95R
WEST JORDAN    CLEAR     37  34  87 CALM      29.99R

$$

UTZ012>022-026-027-180000-

SOUTHERN/CENTRAL UTAH

CITY           SKY/WX    TMP DP  RH WIND       PRES   REMARKS
BLANDING       CLOUDY    32  32 100 S3        30.04R
BRYCE CANYON   PTSUNNY   30  24  78 NW8       29.97R WCI  22
CEDAR CITY     CLOUDY    37  33  85 SW9       29.98R WCI  30
DELTA          CLOUDY    39  27  61 S5        29.99R
MILFORD        CLOUDY    41  30  65 S10       29.97R
MOAB/CYNLANDS  LGT RAIN  36  35  96 W6        29.97R WCI  31
PRICE          MOCLDY    38  20  48 CALM      29.96R
ST GEORGE      CLOUDY    48  32  53 CALM      30.04R
KANAB          CLOUDY    37  37 100 S5        30.05R WCI  34

$$

REGIONAL REPORTS     COLORADO/ARIZONA

CITY           SKY/WX    TMP DP  RH WIND       PRES   REMARKS
CRAIG, CO      CLOUDY    29  27  92 SW5       29.97R WCI  24
GRAND JUNCTION CLOUDY    37  35  92 W3        29.96R
RIFLE          CLOUDY    38  30  73 CALM      29.95R
MONTROSE       CLOUDY    39  31  72 N7        29.95R WCI  34
CORTEZ         CLOUDY    35  33  92 NW3       29.98R
PAGE, AZ       CLOUDY    42  36  79 NE5       30.00R
GRAND CANYON   FLURRIES  34  31  88 W6        30.01S WCI  29
KINGMAN        LGT RAIN  45  40  82 SW13      30.03R
FLAGSTAFF      PTSUNNY   34  28  79 SW7       30.02R WCI  28

$$

REGIONAL REPORTS    NEVADA/IDAHO/WYOMING

CITY           SKY/WX    TMP DP  RH WIND       PRES   REMARKS
LAS VEGAS, NV  CLOUDY    53  39  59 CALM      29.97S
ELY            CLOUDY    36  21  54 SW9       29.96R WCI  29
ELKO           CLOUDY    27  25  92 CALM      29.97R
POCATELLO, ID  PTCLDY    38  32  79 NE7       29.98R WCI  33
BURLEY         CLEAR     40  28  62 E7        29.94S
EVANSTON, WY   CLOUDY    34  18  52 W10       29.95R WCI  26
ROCK SPRINGS   PTCLDY    25  17  72 CALM      29.96R
KEMMERER       CLOUDY    32  19  59 W5        29.95R WCI  27

$$


USA.gov is the U.S. government's official web portal to all federal, state and local government web resources and services.